Weather History for KCEF - June, 2013

Change the Weather History Date:

Friday, June 14, 2013

  Actual Average Record
Temperature  
Mean Temperature 62 °F -  
Max Temperature 75 °F 74 °F 87 °F (2001)
Min Temperature 50 °F 55 °F 50 °F (2000)
Degree Days  
Heating Degree Days 2    
Growing Degree Days 12 (Base 50)    
Moisture  
Dew Point 52 °F    
Average Humidity 84    
Maximum Humidity 100    
Minimum Humidity 37    
Precipitation  
Precipitation 0.59 in - - ()
Sea Level Pressure  
Sea Level Pressure 29.72 in    
Wind  
Wind Speed 10 mph (NNE)    
Max Wind Speed 16 mph    
Max Gust Speed 25 mph    
Visibility 9 miles    
Events Rain    
Averages and records for this station are not official NWS values.
T = Trace of Precipitation, MM = Missing Value Source: NWS Daily Summary

Daily Weather History Graph

Daily Weather History Graph

Search for Another Location

Airport or City:

Trip Planner

Search our weather history database for the weather conditions in past years. The results will help you decide how hot, cold, wet, or windy it might be!

Date:

Astronomy

Jun. 14, 2013 Rise Set
Actual Time 5:13 AM EDT 8:27 PM EDT
Civil Twilight 4:38 AM EDT 9:02 PM EDT
Nautical Twilight 3:54 AM EDT 9:47 PM EDT
Astronomical Twilight 3:00 AM EDT 10:41 PM EDT
Moon 10:50 AM EDT (6/14) 11:56 PM EDT (6/14)
Length of Visible Light 16h 23m
Length of Day
15h 14m
Waxing Crescent, 30% of the Moon is Illuminated
Jun 14
Waxing Crescent
Jun 16
First Quarter
Jun 23
Full
Jun 30
Last Quarter
Jul 8
New

Hourly Weather History & Observations

Time (EDT) Temp. Dew Point Humidity Pressure Visibility Wind Dir Wind Speed Gust Speed Precip Events Conditions
12:03 AM 51.8 °F 51.8 °F 100% 29.66 in 5.0 mi NE 11.5 mph - N/A Rain Rain
12:04 AM 51.8 °F 51.8 °F 100% 29.66 in 5.0 mi NE 11.5 mph - N/A Rain Rain
12:11 AM 51.8 °F 51.8 °F 100% 29.66 in 5.0 mi NE 12.7 mph - N/A Rain Rain
12:23 AM 51.8 °F 51.8 °F 100% 29.65 in 7.0 mi NE 13.8 mph - N/A Rain Rain
12:47 AM 51.8 °F 50.0 °F 94% 29.63 in 7.0 mi NE 16.1 mph 25.3 mph N/A Rain Rain
12:58 AM 51.4 °F 50.7 °F 97% 29.65 in 7.0 mi NE 12.7 mph 21.9 mph 0.11 in Rain Rain
1:58 AM 50.9 °F 50.4 °F 98% 29.67 in 8.0 mi NNE 12.7 mph - 0.11 in Rain Rain
2:58 AM 50.9 °F 50.4 °F 98% 29.66 in 10.0 mi NNE 12.7 mph - 0.07 in Rain Light Rain
3:58 AM 51.1 °F 50.5 °F 98% 29.67 in 10.0 mi NNE 12.7 mph - 0.04 in Rain Light Rain
4:35 AM 51.8 °F 50.0 °F 94% 29.67 in 10.0 mi NNE 11.5 mph - N/A Rain Rain
4:44 AM 51.8 °F 50.0 °F 94% 29.67 in 10.0 mi NNE 12.7 mph - N/A Rain Rain
4:45 AM 51.8 °F 50.0 °F 94% 29.68 in 10.0 mi NNE 12.7 mph - N/A Rain Rain
4:47 AM 51.8 °F 50.0 °F 94% 29.67 in 10.0 mi NNE 10.4 mph - N/A Rain Rain
4:58 AM 51.6 °F 51.1 °F 98% 29.70 in 10.0 mi NNE 11.5 mph - 0.09 in Rain Rain
5:10 AM 51.8 °F 51.8 °F 100% 29.68 in 10.0 mi NNE 10.4 mph - N/A Rain Light Rain
5:17 AM 51.8 °F 51.8 °F 100% 29.68 in 10.0 mi NNE 11.5 mph - N/A Rain Rain
5:58 AM 52.2 °F 51.6 °F 98% 29.71 in 10.0 mi NNE 9.2 mph - 0.10 in Rain Rain
6:58 AM 52.2 °F 51.6 °F 98% 29.71 in 10.0 mi North 11.5 mph - 0.06 in Rain Light Rain
7:37 AM 53.6 °F 51.8 °F 94% 29.69 in 10.0 mi NNE 10.4 mph - N/A   Scattered Clouds
7:58 AM 53.1 °F 52.5 °F 98% 29.73 in 10.0 mi NNE 9.2 mph - 0.01 in   Mostly Cloudy
8:58 AM 54.7 °F 53.1 °F 94% 29.75 in 10.0 mi North 8.1 mph - N/A   Overcast
9:58 AM 58.5 °F 54.0 °F 85% 29.75 in 10.0 mi NE 10.4 mph - N/A   Overcast
10:09 AM 59.0 °F 53.6 °F 82% 29.73 in 10.0 mi NE 9.2 mph - N/A   Overcast
10:10 AM 59.0 °F 53.6 °F 82% 29.73 in 10.0 mi NE 10.4 mph - N/A   Overcast
10:52 AM 62.6 °F 53.6 °F 72% 29.75 in 10.0 mi NE 6.9 mph - N/A   Mostly Cloudy
10:58 AM 61.9 °F 53.1 °F 73% 29.77 in 10.0 mi NNE 8.1 mph - N/A   Mostly Cloudy
10:59 AM 62.6 °F 53.6 °F 72% 29.75 in 10.0 mi North 8.1 mph - N/A   Mostly Cloudy
11:50 AM 60.8 °F 51.8 °F 72% 29.76 in 10.0 mi Variable 2.3 mph - N/A   Overcast
11:56 AM 60.8 °F 51.8 °F 72% 29.76 in 10.0 mi North 4.6 mph - N/A   Overcast
11:58 AM 61.3 °F 51.4 °F 70% 29.78 in 10.0 mi North 4.6 mph - N/A   Overcast
12:58 PM 63.7 °F 52.3 °F 67% 29.77 in 10.0 mi Variable 2.3 mph - N/A   Overcast
1:58 PM 68.9 °F 53.6 °F 58% 29.77 in 10.0 mi NE 9.2 mph - N/A   Clear
2:58 PM 71.6 °F 53.4 °F 53% 29.75 in 10.0 mi North 5.8 mph - N/A   Partly Cloudy
3:58 PM 73.9 °F 52.2 °F 46% 29.75 in 10.0 mi NNW 8.1 mph - N/A   Clear
4:58 PM 75.6 °F 47.3 °F 37% 29.74 in 10.0 mi NNW 8.1 mph - N/A   Clear
5:58 PM 75.4 °F 48.0 °F 38% 29.75 in 10.0 mi Variable 4.6 mph - N/A   Clear
6:58 PM 72.0 °F 54.9 °F 55% 29.77 in 10.0 mi WNW 5.8 mph - N/A   Clear
7:58 PM 68.4 °F 55.8 °F 64% 29.77 in 10.0 mi Calm Calm - N/A   Mostly Cloudy
8:58 PM 61.9 °F 57.6 °F 86% 29.79 in 10.0 mi SW 1.2 mph - N/A   Clear
9:58 PM 55.8 °F 55.2 °F 98% 29.81 in 10.0 mi SW 1.2 mph - N/A   Clear
10:58 PM 53.8 °F 53.6 °F 99% 29.82 in 10.0 mi Variable 1.2 mph - N/A   Clear
11:58 PM 54.0 °F 53.8 °F 99% 29.84 in 10.0 mi SE 1.2 mph - N/A   Clear